Simultaneous Nadir Overpasses (SNOs) Predictions

Prediction of SNOs between METOP-C and LANDSAT-8 Satellite Orbit:

Table of predicted SNOs for the next 14.0 days since TLE Epoch: 12/19/2020
Index Date (METOP-C) Time (METOP-C) Lat,Lon (METOP-C) SZA (METOP-C ) Date (LANDSAT-8) Time (LANDSAT-8) Lat,Lon (LANDSAT-8) SZA (LANDSAT-8 ) Distance(km) Time Diff (sec)
1 12/21/2020 00:37:08 -81.07, 29.69 73.61 12/21/2020 00:37:43 -81.07, 29.66 73.60 0.66 35
2 12/21/2020 01:27:48 81.09,-162.38 106.47 12/21/2020 01:27:08 81.10,-162.28 106.47 1.86 40
3 12/23/2020 20:11:31 -81.06, 95.91 73.69 12/23/2020 20:11:57 -81.06, 95.98 73.67 1.17 26
4 12/23/2020 21:02:10 81.10, -95.82 106.43 12/23/2020 21:01:22 81.09, -95.98 106.39 2.99 48
5 12/26/2020 15:45:54 -81.07, 162.49 73.78 12/26/2020 15:46:11 -81.08, 162.62 73.76 2.26 17
6 12/26/2020 16:36:33 81.10, -29.28 106.33 12/26/2020 16:35:36 81.10, -29.37 106.30 1.50 57
7 12/29/2020 11:20:17 -81.08,-130.95 73.94 12/29/2020 11:20:25 -81.09,-130.79 73.91 2.95 8
8 12/29/2020 12:10:56 81.11, 37.24 106.17 12/29/2020 12:09:50 81.11, 37.21 106.14 0.56 66
9 01/01/2021 06:04:00 81.06, 127.73 105.78 01/01/2021 06:05:12 81.07, 127.72 105.81 0.52 72
10 01/01/2021 06:54:40 -81.07, -64.77 74.20 01/01/2021 06:54:39 -81.07, -64.59 74.19 3.04 1



Historial Predications of SNOs between METOP-C and LANDSAT-8
